Change the Weather History Date:

Friday, February 24, 2012

  Actual Average Record
Temperature  
Mean Temperature 39 °F 40 °F  
Max Temperature 54 °F 55 °F 71 °F (2006)
Min Temperature 23 °F 26 °F 3 °F (2003)
Degree Days  
Heating Degree Days 26 25  
Month to date heating degree days 667 643  
Since 1 July heating degree days 3201 3371  
Cooling Degree Days 0 0  
Month to date cooling degree days 0 0  
Year to date cooling degree days 0 0  
Moisture  
Dew Point 9 °F    
Average Humidity 40    
Maximum Humidity 68    
Minimum Humidity 11    
Precipitation  
Precipitation 0.00 in 0.02 in 0.16 in (2001)
Month to date precipitation 0.22 0.40  
Year to date precipitation 0.24 0.80  
Snow  
Snow 0.00 in - - ()
Month to date snowfall T  
Since 1 July snowfall 9.1  
Snow Depth 0.00 in    
Sea Level Pressure  
Sea Level Pressure 30.22 in    
Wind  
Wind Speed 10 mph (WNW)    
Max Wind Speed 21 mph    
Max Gust Speed 28 mph    
Visibility 10 miles    
Events      
T = Trace of Precipitation, MM = Missing Value Source: NWS Daily Summary

Daily Weather History Graph

Daily Weather History Graph

Search for Another Location

Airport or City:

Trip Planner

Search our weather history database for the weather conditions in past years. The results will help you decide how hot, cold, wet, or windy it might be!

Date:

Astronomy

Feb. 24, 2012 Rise Set
Actual Time 7:23 AM CST 6:35 PM CST
Civil Twilight 6:57 AM CST 7:01 PM CST
Nautical Twilight 6:27 AM CST 7:31 PM CST
Astronomical Twilight 5:57 AM CST 8:01 PM CST
Moon 8:25 AM CST (2/24) 9:33 PM CST (2/24)
Length of Visible Light 12h 03m
Length of Day
11h 11m
Waxing Crescent, 8% of the Moon is Illuminated
Feb 24
Waxing Crescent
Feb 29
First Quarter
Mar 8
Full
Mar 14
Last Quarter
Mar 22
New

Hourly Weather History & Observations

Time (CST) Temp. Windchill Dew Point Humidity Pressure Visibility Wind Dir Wind Speed Gust Speed Precip Events Conditions
12:53 AM 30.9 °F 20.2 °F 17.1 °F 57% 30.11 in 10.0 mi NNW 15.0 mph - N/A   Clear
1:53 AM 28.9 °F 19.2 °F 18.0 °F 64% 30.15 in 10.0 mi NW 11.5 mph - N/A   Clear
2:53 AM 28.0 °F 17.5 °F 17.1 °F 63% 30.16 in 10.0 mi NW 12.7 mph - N/A   Clear
3:53 AM 27.0 °F 16.7 °F 15.1 °F 61% 30.17 in 10.0 mi WNW 11.5 mph - N/A   Clear
4:53 AM 23.0 °F 12.4 °F 14.0 °F 68% 30.19 in 10.0 mi West 10.4 mph - N/A   Clear
5:53 AM 24.1 °F 13.1 °F 14.0 °F 65% 30.21 in 10.0 mi West 11.5 mph - N/A   Clear
6:53 AM 23.0 °F 12.4 °F 14.0 °F 68% 30.23 in 10.0 mi West 10.4 mph - N/A   Clear
7:53 AM 25.0 °F 17.1 °F 15.1 °F 66% 30.24 in 10.0 mi West 6.9 mph - N/A   Clear
8:53 AM 32.0 °F 23.6 °F 17.1 °F 54% 30.26 in 10.0 mi West 10.4 mph - N/A   Clear
9:53 AM 39.9 °F 33.4 °F 17.1 °F 40% 30.26 in 10.0 mi West 10.4 mph - N/A   Clear
10:53 AM 44.1 °F 37.7 °F 12.9 °F 28% 30.25 in 10.0 mi NW 12.7 mph 17.3 mph N/A   Clear
11:53 AM 48.0 °F - 8.1 °F 20% 30.25 in 10.0 mi NW 12.7 mph 19.6 mph N/A   Clear
12:53 PM 50.0 °F - 1.9 °F 14% 30.23 in 10.0 mi NW 11.5 mph 20.7 mph N/A   Clear
1:53 PM 51.1 °F - 6.1 °F 16% 30.21 in 10.0 mi NW 9.2 mph 19.6 mph N/A   Clear
2:53 PM 53.1 °F - 1.9 °F 12% 30.19 in 10.0 mi NW 18.4 mph 27.6 mph N/A   Clear
3:53 PM 53.1 °F - 1.9 °F 12% 30.19 in 10.0 mi WNW 13.8 mph - N/A   Clear
4:53 PM 53.1 °F - -0.0 °F 11% 30.20 in 10.0 mi NNW 11.5 mph - N/A   Clear
5:53 PM 50.0 °F - 1.0 °F 13% 30.21 in 10.0 mi North 6.9 mph - N/A   Clear
6:53 PM 42.1 °F 37.7 °F 1.0 °F 18% 30.25 in 10.0 mi North 6.9 mph - N/A   Clear
7:53 PM 36.0 °F 33.3 °F 3.0 °F 25% 30.28 in 10.0 mi SSE 3.5 mph - N/A   Clear
8:53 PM 39.0 °F - 1.9 °F 21% 30.27 in 10.0 mi Calm Calm - N/A   Clear
9:53 PM 33.1 °F 28.7 °F 3.0 °F 28% 30.29 in 10.0 mi South 4.6 mph - N/A   Clear
10:53 PM 28.9 °F 21.1 °F 3.0 °F 33% 30.30 in 10.0 mi SW 8.1 mph - N/A   Clear
11:53 PM 27.0 °F 20.5 °F 3.9 °F 37% 30.28 in 10.0 mi NNE 5.8 mph - N/A   Clear